| time (UTC) | temp F | wind direction | speed MPH | gust MPH | rain 1hr in | rain 24hr in | rain mn in | humidity % | barometer mb |
| 20260831063043 | 67 | 190 | 0.0 | 0.0 | 0.00 | 0.00 | 0.00 | 97 | 1020.0 |
| 20260831061539 | 68 | 191 | 0.0 | 0.0 | 0.00 | 0.00 | 0.00 | 97 | 1020.0 |
| 20260831060038 | 67 | 190 | 0.0 | 0.0 | 0.00 | 0.00 | 0.00 | 97 | 1020.2 |
| 20260831054538 | 67 | 191 | 0.0 | 0.0 | 0.00 | 0.00 | 0.00 | 97 | 1020.1 |
| 20260831053037 | 68 | 191 | 0.0 | 0.0 | 0.00 | 0.00 | 0.00 | 97 | 1020.0 |
| 20260831051537 | 68 | 191 | 0.0 | 0.0 | 0.00 | 0.00 | 0.00 | 97 | 1019.9 |
| 20260831050032 | 68 | 191 | 0.0 | 0.0 | 0.00 | 0.00 | 0.00 | 97 | 1020.2 |
| 20260831044535 | 68 | 191 | 0.0 | 0.0 | 0.00 | 0.00 | 0.00 | 97 | 1020.1 |
| 20260831043029 | 68 | 191 | 0.0 | 0.0 | 0.00 | 0.00 | 0.00 | 96 | 1020.1 |
| 20260831041527 | 69 | 191 | 0.0 | 0.0 | 0.00 | 0.00 | 0.00 | 96 | 1020.0 |
| 20260831040030 | 69 | 190 | 0.0 | 0.0 | 0.00 | 0.00 | 0.00 | 96 | 1020.2 |
| 20260831034528 | 69 | 191 | 0.0 | 0.0 | 0.00 | 0.00 | 0.00 | 96 | 1020.2 |
| 20260831033033 | 69 | 191 | 0.0 | 0.0 | 0.00 | 0.00 | 0.00 | 96 | 1020.4 |
| 20260831031521 | 70 | 191 | 0.0 | 0.0 | 0.00 | 0.00 | 0.00 | 96 | 1020.4 |
| 20260831030021 | 70 | 191 | 0.0 | 0.0 | 0.00 | 0.00 | 0.00 | 96 | 1020.5 |
| 20260831024527 | 70 | 191 | 0.0 | 0.0 | 0.00 | 0.00 | 0.00 | 96 | 1020.4 |
| 20260831023020 | 70 | 190 | 0.0 | 0.0 | 0.00 | 0.00 | 0.00 | 95 | 1020.3 |
| 20260831021537 | 70 | 190 | 0.0 | 0.0 | 0.00 | 0.00 | 0.00 | 95 | 1020.4 |
| 20260831020019 | 70 | 190 | 0.0 | 0.0 | 0.00 | 0.00 | 0.00 | 94 | 1020.4 |
| 20260831014535 | 71 | 191 | 0.0 | 0.0 | 0.00 | 0.00 | 0.00 | 94 | 1020.3 |
| 20260831013018 | 71 | 191 | 0.0 | 0.0 | 0.00 | 0.00 | 0.00 | 93 | 1020.2 |
| 20260831011535 | 71 | 191 | 0.0 | 0.0 | 0.00 | 0.00 | 0.00 | 92 | 1020.1 |
| 20260831010020 | 72 | 191 | 0.0 | 0.0 | 0.00 | 0.00 | 0.00 | 92 | 1020.0 |
| 20260831004515 | 73 | 191 | 0.0 | 0.0 | 0.00 | 0.00 | 0.00 | 91 | 1019.8 |
| 20260831003017 | 74 | 191 | 0.0 | 0.0 | 0.00 | 0.00 | 0.00 | 89 | 1019.9 |
| 20260831001530 | 75 | 190 | 0.0 | 0.0 | 0.00 | 0.00 | 0.00 | 87 | 1019.8 |
| 20260831000015 | 76 | 191 | 0.0 | 0.0 | 0.00 | 0.00 | 0.00 | 86 | 1019.9 |
| 20260830234522 | 77 | 191 | 0.0 | 0.0 | 0.00 | 0.00 | 0.00 | 83 | 1020.1 |
| 20260830233013 | 79 | 190 | 0.0 | 0.0 | 0.00 | 0.00 | 0.00 | 80 | 1019.9 |
| 20260830231512 | 81 | 191 | 0.0 | 0.0 | 0.00 | 0.00 | 0.00 | 77 | 1019.9 |
| 20260830230011 | 82 | 200 | 0.0 | 1.0 | 0.00 | 0.00 | 0.00 | 76 | 1020.1 |
| 20260830224510 | 82 | 200 | 0.0 | 4.0 | 0.00 | 0.00 | 0.00 | 73 | 1020.0 |
| 20260830223009 | 83 | 123 | 0.0 | 2.0 | 0.00 | 0.00 | 0.00 | 75 | 1020.0 |
| 20260830221508 | 83 | 123 | 0.0 | 2.0 | 0.00 | 0.00 | 0.00 | 76 | 1019.9 |
| 20260830220008 | 83 | 124 | 0.0 | 2.0 | 0.00 | 0.00 | 0.00 | 73 | 1020.0 |
| 20260830214509 | 84 | 206 | 0.0 | 4.0 | 0.00 | 0.00 | 0.00 | 71 | 1020.0 |
| 20260830213006 | 84 | 53 | 0.0 | 3.0 | 0.00 | 0.00 | 0.00 | 73 | 1019.7 |
| 20260830211505 | 83 | 187 | 0.0 | 2.0 | 0.00 | 0.00 | 0.00 | 74 | 1019.8 |
| 20260830210104 | 84 | 187 | 0.0 | 5.0 | 0.00 | 0.00 | 0.00 | 72 | 1020.0 |
| 20260830204505 | 84 | 67 | 0.0 | 3.0 | 0.00 | 0.00 | 0.00 | 74 | 1020.0 |
| 20260830203100 | 84 | 107 | 0.0 | 4.0 | 0.00 | 0.00 | 0.00 | 71 | 1020.2 |
| 20260830201557 | 84 | 168 | 1.0 | 5.0 | 0.00 | 0.00 | 0.00 | 70 | 1020.4 |
| 20260830200056 | 84 | 200 | 1.0 | 6.0 | 0.00 | 0.00 | 0.00 | 68 | 1020.6 |
| 20260830194605 | 83 | 250 | 0.0 | 3.0 | 0.00 | 0.78 | 0.00 | 74 | 1020.6 |
| 20260830193053 | 83 | 160 | 1.0 | 4.0 | 0.00 | 0.78 | 0.00 | 72 | 1021.0 |
| 20260830191552 | 84 | 237 | 1.0 | 6.0 | 0.00 | 0.78 | 0.00 | 74 | 1020.9 |
| 20260830190052 | 83 | 94 | 1.0 | 4.0 | 0.00 | 0.78 | 0.00 | 73 | 1021.0 |
| 20260830184550 | 84 | 136 | 2.0 | 6.0 | 0.00 | 1.19 | 0.00 | 70 | 1021.2 |
| 20260830183047 | 84 | 220 | 0.0 | 3.0 | 0.00 | 1.19 | 0.00 | 71 | 1021.6 |
| 20260830181543 | 83 | 220 | 0.0 | 3.0 | 0.00 | 1.19 | 0.00 | 74 | 1021.8 |
| 20260830180040 | 82 | 216 | 1.0 | 3.0 | 0.00 | 1.19 | 0.00 | 83 | 1022.2 |
| 20260830174553 | 81 | 107 | 0.0 | 3.0 | 0.00 | 1.19 | 0.00 | 80 | 1022.5 |
| 20260830173037 | 80 | 290 | 0.0 | 2.0 | 0.00 | 1.19 | 0.00 | 80 | 1022.5 |
| 20260830171532 | 79 | 197 | 0.0 | 4.0 | 0.00 | 1.19 | 0.00 | 83 | 1022.7 |
| 20260830170028 | 77 | 122 | 0.0 | 2.0 | 0.00 | 1.19 | 0.00 | 85 | 1022.7 |
| 20260830164528 | 76 | 298 | 0.0 | 1.0 | 0.00 | 1.19 | 0.00 | 87 | 1022.8 |
| 20260830163029 | 75 | 298 | 0.0 | 1.0 | 0.00 | 1.19 | 0.00 | 87 | 1023.0 |
| 20260830161626 | 75 | 298 | 0.0 | 2.0 | 0.00 | 1.19 | 0.00 | 89 | 1023.0 |
| 20260830160017 | 74 | 236 | 0.0 | 2.0 | 0.00 | 1.19 | 0.00 | 89 | 1023.2 |
| 20260830154515 | 74 | 236 | 0.0 | 2.0 | 0.00 | 1.19 | 0.00 | 91 | 1023.3 |
| 20260830153027 | 74 | 236 | 0.0 | 1.0 | 0.00 | 1.19 | 0.00 | 92 | 1023.2 |
| 20260830151518 | 73 | 236 | 0.0 | 1.0 | 0.00 | 1.19 | 0.00 | 93 | 1023.1 |
| 20260830150003 | 73 | 236 | 0.0 | 1.0 | 0.00 | 1.19 | 0.00 | 95 | 1023.2 |
| 20260830144600 | 72 | 236 | 0.0 | 2.0 | 0.00 | 1.19 | 0.00 | 95 | 1023.2 |
| 20260830143053 | 72 | 236 | 0.0 | 1.0 | 0.00 | 1.19 | 0.00 | 96 | 1023.2 |
| 20260830141548 | 72 | 360 | 1.0 | 2.0 | 0.00 | 1.19 | 0.00 | 96 | 1023.4 |
| 20260830140104 | 72 | 229 | 0.0 | 0.0 | 0.00 | 1.19 | 0.00 | 97 | 1023.4 |
| 20260830134541 | 71 | 229 | 0.0 | 1.0 | 0.00 | 1.19 | 0.00 | 97 | 1023.6 |
| 20260830133045 | 71 | 229 | 0.0 | 0.0 | 0.00 | 1.19 | 0.00 | 98 | 1023.5 |
| 20260830131532 | 71 | 229 | 0.0 | 1.0 | 0.00 | 1.19 | 0.00 | 98 | 1023.4 |
| 20260830130031 | 70 | 229 | 0.0 | 2.0 | 0.00 | 1.19 | 0.00 | 98 | 1023.2 |
| 20260830124538 | 70 | 229 | 0.0 | 2.0 | 0.00 | 1.19 | 0.00 | 98 | 1023.1 |
| 20260830123034 | 70 | 229 | 0.0 | 1.0 | 0.00 | 1.19 | 0.00 | 98 | 1023.2 |
| 20260830121529 | 70 | 229 | 0.0 | 1.0 | 0.00 | 1.19 | 0.00 | 98 | 1023.1 |
| 20260830120028 | 70 | 229 | 0.0 | 0.0 | 0.00 | 1.19 | 0.00 | 98 | 1023.2 |
| 20260830114528 | 70 | 229 | 0.0 | 0.0 | 0.00 | 1.19 | 0.00 | 98 | 1023.3 |
| 20260830113026 | 70 | 229 | 0.0 | 0.0 | 0.00 | 1.19 | 0.00 | 98 | 1023.0 |
| 20260830111526 | 70 | 229 | 0.0 | 1.0 | 0.00 | 1.19 | 0.00 | 98 | 1022.9 |
| 20260830110038 | 69 | 229 | 0.0 | 0.0 | 0.00 | 1.19 | 0.00 | 98 | 1022.7 |
| 20260830104534 | 69 | 229 | 0.0 | 0.0 | 0.00 | 1.19 | 0.00 | 98 | 1022.6 |
| 20260830103024 | 69 | 229 | 0.0 | 0.0 | 0.00 | 1.19 | 0.00 | 98 | 1022.4 |
| 20260830101523 | 70 | 229 | 0.0 | 0.0 | 0.00 | 1.19 | 0.00 | 98 | 1022.2 |
| 20260830100023 | 70 | 229 | 0.0 | 0.0 | 0.00 | 1.19 | 0.00 | 98 | 1022.3 |
| 20260830094522 | 70 | 229 | 0.0 | 0.0 | 0.00 | 1.19 | 0.00 | 98 | 1022.0 |
| 20260830093022 | 70 | 229 | 0.0 | 0.0 | 0.00 | 1.19 | 0.00 | 98 | 1022.1 |
| 20260830091522 | 70 | 229 | 0.0 | 0.0 | 0.00 | 1.19 | 0.00 | 98 | 1022.0 |
| 20260830090021 | 70 | 229 | 0.0 | 0.0 | 0.00 | 1.19 | 0.00 | 98 | 1021.8 |
| 20260830084519 | 70 | 229 | 0.0 | 0.0 | 0.00 | 1.19 | 0.00 | 98 | 1021.9 |
| 20260830083019 | 70 | 229 | 0.0 | 0.0 | 0.00 | 1.19 | 0.00 | 98 | 1022.0 |
| 20260830081517 | 70 | 229 | 0.0 | 0.0 | 0.00 | 1.19 | 0.00 | 98 | 1022.1 |
| 20260830080016 | 70 | 229 | 0.0 | 0.0 | 0.00 | 1.19 | 0.00 | 98 | 1022.2 |
| 20260830074515 | 70 | 229 | 0.0 | 0.0 | 0.00 | 1.19 | 0.00 | 98 | 1022.3 |
| 20260830073015 | 70 | 229 | 0.0 | 0.0 | 0.00 | 1.19 | 0.00 | 98 | 1022.2 |
| 20260830071537 | 70 | 229 | 0.0 | 0.0 | 0.00 | 1.19 | 0.00 | 98 | 1022.3 |
| 20260830070021 | 70 | 229 | 0.0 | 0.0 | 0.00 | 1.19 | 0.00 | 98 | 1022.3 |
| 20260830064513 | 70 | 229 | 0.0 | 0.0 | 0.00 | 1.19 | 0.00 | 98 | 1022.3 |